Location: Isle of Man Observatory
(54.1776°N, 4.6264°W)
Time: 06:49:40
(UTC+01:00)

Envisat - Visible Passes

Search period start: 22 January 2019 00:00
Search period end: 01 February 2019 00:00
Orbit: 764 x 766 km, 98.2° (Epoch: 20 January)

Date Brightness Start Highest point End Pass type
(mag) Time Alt. Az. Time Alt. Az. Time Alt. Az.
22 Jan 5.2 08:10:36 10° NNE 08:15:02 29° E 08:19:26 10° SSE visible
22 Jan 2.9 19:31:34 10° SSE 19:36:38 72° ENE 19:41:43 10° NNW visible
22 Jan 5.4 21:12:21 10° SW 21:16:12 21° W 21:20:04 10° NW visible
23 Jan 6.0 07:34:47 10° NE 07:37:50 16° E 07:40:52 10° ESE visible
23 Jan 3.4 18:55:19 10° SE 19:00:02 40° ENE 19:04:46 10° N visible
23 Jan 4.3 20:34:20 10° SSW 20:39:05 39° W 20:43:53 10° NNW visible
24 Jan 4.4 08:35:53 10° NNE 08:40:47 45° E 08:45:39 10° S visible
24 Jan 4.1 18:19:39 10° ESE 18:23:36 23° NE 18:27:34 10° N visible
24 Jan 3.2 19:57:06 10° S 20:02:11 74° WSW 20:07:18 10° NNW visible
24 Jan 5.9 21:39:36 10° WSW 21:42:07 14° W 21:44:39 10° NW visible
25 Jan 5.5 07:59:34 10° NE 08:03:43 24° E 08:07:50 10° SE visible
25 Jan 3.0 19:20:27 10° SSE 19:25:27 60° ENE 19:30:29 10° N visible
25 Jan 5.1 21:00:40 10° SSW 21:04:52 26° W 21:09:06 10° NW visible
26 Jan 6.1 07:24:08 10° NE 07:26:26 13° E 07:28:45 10° ESE visible
26 Jan 3.6 18:44:22 10° SE 18:48:54 34° ENE 18:53:27 10° N visible
26 Jan 4.0 20:22:55 10° S 20:27:49 47° W 20:32:45 10° NNW visible
27 Jan 4.8 08:24:45 10° NNE 08:29:30 38° E 08:34:13 10° SSE visible
27 Jan 3.0 19:45:52 10° SSE 19:50:57 88° WSW 19:56:05 10° NNW visible
27 Jan 5.7 21:27:33 10° SW 21:30:45 17° W 21:33:57 10° NW visible
28 Jan 5.8 07:48:36 10° NE 07:52:23 20° E 07:56:08 10° SE visible
28 Jan 3.1 19:09:23 10° SE 19:14:17 51° ENE 19:19:13 10° N visible
28 Jan 4.8 20:49:05 10° SSW 20:53:33 30° W 20:58:04 10° NNW visible
29 Jan 6.5 07:14:07 10° ENE 07:15:03 10° E 07:15:58 10° E visible
29 Jan 3.8 18:33:28 10° ESE 18:37:47 29° ENE 18:42:08 10° N visible
29 Jan 3.6 20:11:33 10° S 20:16:33 57° W 20:21:36 10° NNW visible
29 Jan 6.2 21:56:20 10° W 21:56:44 10° W 21:57:08 10° WNW visible
30 Jan 5.1 08:13:40 10° NNE 08:18:12 31° E 08:22:43 10° SSE visible
30 Jan 2.9 19:34:41 10° SSE 19:39:45 78° ENE 19:44:52 10° NNW visible
30 Jan 5.5 21:15:42 10° SW 21:19:23 20° W 21:23:05 10° NW visible
31 Jan 6.0 07:37:44 10° NE 07:41:01 17° E 07:44:18 10° SE visible
31 Jan 3.3 18:58:22 10° SE 19:03:07 42° ENE 19:07:56 10° N visible
31 Jan 4.5 20:37:34 10° SSW 20:42:15 37° W 20:46:58 10° NNW visible
